#Datum;Uhrzeit;WR;Pac;DaySum;Status;WR;Pac;DaySum;Status;Pdc1;Udc;Temp;WR;Pac;DaySum;Status;Pdc1;Udc;Temp;WR;Pac;DaySum;Status;Pdc1;Udc;Temp;WR;Pac;DaySum;Status;Pdc1;Pdc2;Udc1;Udc2;Temp;WR;Pac;DaySum;Status;Pdc1;Pdc2;Udc1;Udc2;Temp;WR;Pac;DaySum;Status;Pdc1;Udc;Temp;WR;Pac;DaySum;Status;Pdc1;Udc;Temp;WR;Pac;DaySum;Status;Pdc1;Udc;Temp
10.11.20;23:55:00;1;328;12787;0;2;0;2061;0;0;0;0;3;0;1228;0;0;0;0;4;0;1668;0;0;0;0;5;0;0;0;0;0;0;0;0;6;0;3246;0;0;0;0;0;0;7;0;1982;0;0;0;0;8;0;785;0;0;0;0;9;0;1037;0;0;0;0
10.11.20;23:50:00;1;392;12760;0;2;0;2061;0;0;0;0;3;0;1228;0;0;0;0;4;0;1668;0;0;0;0;5;0;0;0;0;0;0;0;0;6;0;3246;0;0;0;0;0;0;7;0;1982;0;0;0;0;8;0;785;0;0;0;0;9;0;1037;0;0;0;0
10.11.20;23:45:00;1;336;12725;0;2;0;2061;0;0;0;0;3;0;1228;0;0;0;0;4;0;1668;0;0;0;0;5;0;0;0;0;0;0;0;0;6;0;3246;0;0;0;0;0;0;7;0;1982;0;0;0;0;8;0;785;0;0;0;0;9;0;1037;0;0;0;0
10.11.20;23:40:00;1;256;12698;0;2;0;2061;0;0;0;0;3;0;1228;0;0;0;0;4;0;1668;0;0;0;0;5;0;0;0;0;0;0;0;0;6;0;3246;0;0;0;0;0;0;7;0;1982;0;0;0;0;8;0;785;0;0;0;0;9;0;1037;0;0;0;0
10.11.20;23:35:00;1;253;12676;0;2;0;2061;0;0;0;0;3;0;1228;0;0;0;0;4;0;1668;0;0;0;0;5;0;0;0;0;0;0;0;0;6;0;3246;0;0;0;0;0;0;7;0;1982;0;0;0;0;8;0;785;0;0;0;0;9;0;1037;0;0;0;0
10.11.20;23:30:00;1;254;12655;0;2;0;2061;0;0;0;0;3;0;1228;0;0;0;0;4;0;1668;0;0;0;0;5;0;0;0;0;0;0;0;0;6;0;3246;0;0;0;0;0;0;7;0;1982;0;0;0;0;8;0;785;0;0;0;0;9;0;1037;0;0;0;0
10.11.20;23:25:00;1;315;12634;0;2;0;2061;0;0;0;0;3;0;1228;0;0;0;0;4;0;1668;0;0;0;0;5;0;0;0;0;0;0;0;0;6;0;3246;0;0;0;0;0;0;7;0;1982;0;0;0;0;8;0;785;0;0;0;0;9;0;1037;0;0;0;0
10.11.20;23:20:00;1;352;12609;0;2;0;2061;0;0;0;0;3;0;1228;0;0;0;0;4;0;1668;0;0;0;0;5;0;0;0;0;0;0;0;0;6;0;3246;0;0;0;0;0;0;7;0;1982;0;0;0;0;8;0;785;0;0;0;0;9;0;1037;0;0;0;0
10.11.20;23:15:00;1;395;12579;0;2;0;2061;0;0;0;0;3;0;1228;0;0;0;0;4;0;1668;0;0;0;0;5;0;0;0;0;0;0;0;0;6;0;3246;0;0;0;0;0;0;7;0;1982;0;0;0;0;8;0;785;0;0;0;0;9;0;1037;0;0;0;0
10.11.20;23:10:00;1;507;12547;0;2;0;2061;0;0;0;0;3;0;1228;0;0;0;0;4;0;1668;0;0;0;0;5;0;0;0;0;0;0;0;0;6;0;3246;0;0;0;0;0;0;7;0;1982;0;0;0;0;8;0;785;0;0;0;0;9;0;1037;0;0;0;0
10.11.20;23:05:00;1;514;12505;0;2;0;2061;0;0;0;0;3;0;1228;0;0;0;0;4;0;1668;0;0;0;0;5;0;0;0;0;0;0;0;0;6;0;3246;0;0;0;0;0;0;7;0;1982;0;0;0;0;8;0;785;0;0;0;0;9;0;1037;0;0;0;0
10.11.20;23:00:00;1;565;12462;0;2;0;2061;0;0;0;0;3;0;1228;0;0;0;0;4;0;1668;0;0;0;0;5;0;0;0;0;0;0;0;0;6;0;3246;0;0;0;0;0;0;7;0;1982;0;0;0;0;8;0;785;0;0;0;0;9;0;1037;0;0;0;0
10.11.20;22:55:00;1;586;12414;0;2;0;2061;0;0;0;0;3;0;1228;0;0;0;0;4;0;1668;0;0;0;0;5;0;0;0;0;0;0;0;0;6;0;3246;2;0;0;0;0;0;7;0;1982;0;0;0;0;8;0;785;0;0;0;0;9;0;1037;0;0;0;0
10.11.20;22:50:00;1;488;12365;0;2;0;2061;0;0;0;0;3;0;1228;0;0;0;0;4;0;1668;0;0;0;0;5;0;0;0;0;0;0;0;0;6;0;3246;2;0;0;0;0;0;7;0;1982;0;0;0;0;8;0;785;0;0;0;0;9;0;1037;0;0;0;0
10.11.20;22:45:00;1;510;12326;0;2;0;2061;0;0;0;0;3;0;1228;0;0;0;0;4;0;1668;0;0;0;0;5;0;0;0;0;0;0;0;0;6;0;3246;2;0;0;0;0;0;7;0;1982;0;0;0;0;8;0;785;0;0;0;0;9;0;1037;0;0;0;0
10.11.20;22:40:00;1;520;12284;0;2;0;2061;0;0;0;0;3;0;1228;0;0;0;0;4;0;1668;0;0;0;0;5;0;0;0;0;0;0;0;0;6;0;3246;2;0;0;0;0;0;7;0;1982;0;0;0;0;8;0;785;0;0;0;0;9;0;1037;0;0;0;0
10.11.20;22:35:00;1;540;12240;0;2;0;2061;0;0;0;0;3;0;1228;0;0;0;0;4;0;1668;0;0;0;0;5;0;0;0;0;0;0;0;0;6;0;3246;2;0;0;0;0;0;7;0;1982;0;0;0;0;8;0;785;0;0;0;0;9;0;1037;0;0;0;0
10.11.20;22:30:00;1;667;12195;0;2;0;2061;0;0;0;0;3;0;1228;0;0;0;0;4;0;1668;0;0;0;0;5;0;0;0;0;0;0;0;0;6;0;3246;2;0;0;0;0;0;7;0;1982;0;0;0;0;8;0;785;0;0;0;0;9;0;1037;0;0;0;0
10.11.20;22:25:00;1;652;12141;0;2;0;2061;0;0;0;0;3;0;1228;0;0;0;0;4;0;1668;0;0;0;0;5;0;0;0;0;0;0;0;0;6;0;3246;2;0;0;0;0;0;7;0;1982;0;0;0;0;8;0;785;0;0;0;0;9;0;1037;0;0;0;0
10.11.20;22:20:00;1;597;12087;0;2;0;2061;0;0;0;0;3;0;1228;0;0;0;0;4;0;1668;0;0;0;0;5;0;0;0;0;0;0;0;0;6;0;3246;2;0;0;0;0;0;7;0;1982;0;0;0;0;8;0;785;0;0;0;0;9;0;1037;0;0;0;0
10.11.20;22:15:00;1;644;12037;0;2;0;2061;0;0;0;0;3;0;1228;0;0;0;0;4;0;1668;0;0;0;0;5;0;0;0;0;0;0;0;0;6;0;3246;2;0;0;0;0;0;7;0;1982;0;0;0;0;8;0;785;0;0;0;0;9;0;1037;0;0;0;0
10.11.20;22:10:00;1;679;11984;0;2;0;2061;0;0;0;0;3;0;1228;0;0;0;0;4;0;1668;0;0;0;0;5;0;0;0;0;0;0;0;0;6;0;3246;2;0;0;0;0;0;7;0;1982;0;0;0;0;8;0;785;0;0;0;0;9;0;1037;0;0;0;0
10.11.20;22:05:00;1;662;11927;0;2;0;2061;0;0;0;0;3;0;1228;0;0;0;0;4;0;1668;0;0;0;0;5;0;0;0;0;0;0;0;0;6;0;3246;2;0;0;0;0;0;7;0;1982;0;0;0;0;8;0;785;0;0;0;0;9;0;1037;0;0;0;0
10.11.20;22:00:00;1;684;11871;0;2;0;2061;0;0;0;0;3;0;1228;0;0;0;0;4;0;1668;0;0;0;0;5;0;0;0;0;0;0;0;0;6;0;3246;2;0;0;0;0;0;7;0;1982;0;0;0;0;8;0;785;0;0;0;0;9;0;1037;0;0;0;0
10.11.20;21:55:00;1;616;11814;0;2;0;2061;0;0;0;0;3;0;1228;0;0;0;0;4;0;1668;0;0;0;0;5;0;0;0;0;0;0;0;0;6;0;3246;2;0;0;0;0;0;7;0;1982;0;0;0;0;8;0;785;0;0;0;0;9;0;1037;0;0;0;0
10.11.20;21:50:00;1;607;11762;0;2;0;2061;0;0;0;0;3;0;1228;0;0;0;0;4;0;1668;0;0;0;0;5;0;0;0;0;0;0;0;0;6;0;3246;2;0;0;0;0;0;7;0;1982;0;0;0;0;8;0;785;0;0;0;0;9;0;1037;0;0;0;0
10.11.20;21:45:00;1;608;11713;0;2;0;2061;0;0;0;0;3;0;1228;0;0;0;0;4;0;1668;0;0;0;0;5;0;0;0;0;0;0;0;0;6;0;3246;2;0;0;0;0;0;7;0;1982;0;0;0;0;8;0;785;0;0;0;0;9;0;1037;0;0;0;0
10.11.20;21:40:00;1;622;11663;0;2;0;2061;0;0;0;0;3;0;1228;0;0;0;0;4;0;1668;0;0;0;0;5;0;0;0;0;0;0;0;0;6;0;3246;2;0;0;0;0;0;7;0;1982;0;0;0;0;8;0;785;0;0;0;0;9;0;1037;0;0;0;0
10.11.20;21:35:00;1;629;11611;0;2;0;2061;0;0;0;0;3;0;1228;0;0;0;0;4;0;1668;0;0;0;0;5;0;0;0;0;0;0;0;0;6;0;3246;2;0;0;0;0;0;7;0;1982;0;0;0;0;8;0;785;0;0;0;0;9;0;1037;0;0;0;0
10.11.20;21:30:00;1;655;11558;0;2;0;2061;0;0;0;0;3;0;1228;0;0;0;0;4;0;1668;0;0;0;0;5;0;0;0;0;0;0;0;0;6;0;3246;2;0;0;0;0;0;7;0;1982;0;0;0;0;8;0;785;0;0;0;0;9;0;1037;0;0;0;0
10.11.20;21:25:00;1;631;11504;0;2;0;2061;0;0;0;0;3;0;1228;0;0;0;0;4;0;1668;0;0;0;0;5;0;0;0;0;0;0;0;0;6;0;3246;2;0;0;0;0;0;7;0;1982;0;0;0;0;8;0;785;0;0;0;0;9;0;1037;0;0;0;0
10.11.20;21:20:00;1;932;11452;0;2;0;2061;0;0;0;0;3;0;1228;0;0;0;0;4;0;1668;0;0;0;0;5;0;0;0;0;0;0;0;0;6;0;3246;2;0;0;0;0;0;7;0;1982;0;0;0;0;8;0;785;0;0;0;0;9;0;1037;0;0;0;0
10.11.20;21:15:00;1;3286;11369;0;2;0;2061;0;0;0;0;3;0;1228;0;0;0;0;4;0;1668;0;0;0;0;5;0;0;0;0;0;0;0;0;6;0;3246;2;0;0;0;0;0;7;0;1982;0;0;0;0;8;0;785;0;0;0;0;9;0;1037;0;0;0;0
10.11.20;21:10:00;1;2535;11105;0;2;0;2061;0;0;0;0;3;0;1228;0;0;0;0;4;0;1668;0;0;0;0;5;0;0;0;0;0;0;0;0;6;0;3246;2;0;0;0;0;0;7;0;1982;0;0;0;0;8;0;785;0;0;0;0;9;0;1037;0;0;0;0
10.11.20;21:05:00;1;2514;10894;0;2;0;2061;0;0;0;0;3;0;1228;0;0;0;0;4;0;1668;0;0;0;0;5;0;0;0;0;0;0;0;0;6;0;3246;2;0;0;0;0;0;7;0;1982;0;0;0;0;8;0;785;0;0;0;0;9;0;1037;0;0;0;0
10.11.20;21:00:00;1;2290;10685;0;2;0;2061;0;0;0;0;3;0;1228;0;0;0;0;4;0;1668;0;0;0;0;5;0;0;0;0;0;0;0;0;6;0;3246;2;0;0;0;0;0;7;0;1982;0;0;0;0;8;0;785;0;0;0;0;9;0;1037;0;0;0;0
10.11.20;20:55:00;1;644;10499;0;2;0;2061;0;0;0;0;3;0;1228;0;0;0;0;4;0;1668;0;0;0;0;5;0;0;0;0;0;0;0;0;6;0;3246;2;0;0;0;0;0;7;0;1982;0;0;0;0;8;0;785;0;0;0;0;9;0;1037;0;0;0;0
10.11.20;20:50:00;1;640;10445;0;2;0;2061;0;0;0;0;3;0;1228;0;0;0;0;4;0;1668;0;0;0;0;5;0;0;0;0;0;0;0;0;6;0;3246;2;0;0;0;0;0;7;0;1982;0;0;0;0;8;0;785;0;0;0;0;9;0;1037;0;0;0;0
10.11.20;20:45:00;1;678;10392;0;2;0;2061;0;0;0;0;3;0;1228;0;0;0;0;4;0;1668;0;0;0;0;5;0;0;0;0;0;0;0;0;6;0;3246;2;0;0;0;0;0;7;0;1982;0;0;0;0;8;0;785;0;0;0;0;9;0;1037;0;0;0;0
10.11.20;20:40:00;1;807;10330;0;2;0;2061;0;0;0;0;3;0;1228;0;0;0;0;4;0;1668;0;0;0;0;5;0;0;0;0;0;0;0;0;6;0;3246;2;0;0;0;0;0;7;0;1982;0;0;0;0;8;0;785;0;0;0;0;9;0;1037;0;0;0;0
10.11.20;20:35:00;1;762;10257;0;2;0;2061;0;0;0;0;3;0;1228;0;0;0;0;4;0;1668;0;0;0;0;5;0;0;0;0;0;0;0;0;6;0;3246;2;0;0;0;0;0;7;0;1982;0;0;0;0;8;0;785;0;0;0;0;9;0;1037;0;0;0;0
10.11.20;20:30:00;1;774;10194;0;2;0;2061;0;0;0;0;3;0;1228;0;0;0;0;4;0;1668;0;0;0;0;5;0;0;0;0;0;0;0;0;6;0;3246;2;0;0;0;0;0;7;0;1982;0;0;0;0;8;0;785;0;0;0;0;9;0;1037;0;0;0;0
10.11.20;20:25:00;1;823;10130;0;2;0;2061;0;0;0;0;3;0;1228;0;0;0;0;4;0;1668;0;0;0;0;5;0;0;0;0;0;0;0;0;6;0;3246;2;0;0;0;0;0;7;0;1982;0;0;0;0;8;0;785;0;0;0;0;9;0;1037;0;0;0;0
10.11.20;20:20:00;1;2491;10034;0;2;0;2061;0;0;0;0;3;0;1228;0;0;0;0;4;0;1668;0;0;0;0;5;0;0;0;0;0;0;0;0;6;0;3246;2;0;0;0;0;0;7;0;1982;0;0;0;0;8;0;785;0;0;0;0;9;0;1037;0;0;0;0
10.11.20;20:15:00;1;2392;9823;0;2;0;2061;0;0;0;0;3;0;1228;0;0;0;0;4;0;1668;0;0;0;0;5;0;0;0;0;0;0;0;0;6;0;3246;2;0;0;0;0;0;7;0;1982;0;0;0;0;8;0;785;0;0;0;0;9;0;1037;0;0;0;0
10.11.20;20:10:00;1;2295;9624;0;2;0;2061;0;0;0;0;3;0;1228;0;0;0;0;4;0;1668;0;0;0;0;5;0;0;0;0;0;0;0;0;6;0;3246;2;0;0;0;0;0;7;0;1982;0;0;0;0;8;0;785;0;0;0;0;9;0;1037;0;0;0;0
10.11.20;20:05:00;1;1009;9432;0;2;0;2061;0;0;0;0;3;0;1228;0;0;0;0;4;0;1668;0;0;0;0;5;0;0;0;0;0;0;0;0;6;0;3246;2;0;0;0;0;0;7;0;1982;0;0;0;0;8;0;785;0;0;0;0;9;0;1037;0;0;0;0
10.11.20;20:00:00;1;782;9367;0;2;0;2061;0;0;0;0;3;0;1228;0;0;0;0;4;0;1668;0;0;0;0;5;0;0;0;0;0;0;0;0;6;0;3246;2;0;0;0;0;0;7;0;1982;0;0;0;0;8;0;785;0;0;0;0;9;0;1037;0;0;0;0
10.11.20;19:55:00;1;621;9302;0;2;0;2061;0;0;0;0;3;0;1228;0;0;0;0;4;0;1668;0;0;0;0;5;0;0;0;0;0;0;0;0;6;0;3246;2;0;0;0;0;0;7;0;1982;0;0;0;0;8;0;785;0;0;0;0;9;0;1037;0;0;0;0
10.11.20;19:50:00;1;339;9243;0;2;0;2061;0;0;0;0;3;0;1228;0;0;0;0;4;0;1668;0;0;0;0;5;0;0;0;0;0;0;0;0;6;0;3246;2;0;0;0;0;0;7;0;1982;0;0;0;0;8;0;785;0;0;0;0;9;0;1037;0;0;0;0
10.11.20;19:45:00;1;365;9215;0;2;0;2061;0;0;0;0;3;0;1228;0;0;0;0;4;0;1668;0;0;0;0;5;0;0;0;0;0;0;0;0;6;0;3246;2;0;0;0;0;0;7;0;1982;0;0;0;0;8;0;785;0;0;0;0;9;0;1037;0;0;0;0
10.11.20;19:40:00;1;313;9185;0;2;0;2061;0;0;0;0;3;0;1228;0;0;0;0;4;0;1668;0;0;0;0;5;0;0;0;0;0;0;0;0;6;0;3246;2;0;0;0;0;0;7;0;1982;0;0;0;0;8;0;785;0;0;0;0;9;0;1037;0;0;0;0
10.11.20;19:35:00;1;356;9158;0;2;0;2061;0;0;0;0;3;0;1228;0;0;0;0;4;0;1668;0;0;0;0;5;0;0;0;0;0;0;0;0;6;0;3246;2;0;0;0;0;0;7;0;1982;0;0;0;0;8;0;785;0;0;0;0;9;0;1037;0;0;0;0
10.11.20;19:30:00;1;389;9126;0;2;0;2061;0;0;0;0;3;0;1228;0;0;0;0;4;0;1668;0;0;0;0;5;0;0;0;0;0;0;0;0;6;0;3246;2;0;0;0;0;0;7;0;1982;0;0;0;0;8;0;785;0;0;0;0;9;0;1037;0;0;0;0
10.11.20;19:25:00;1;395;9094;0;2;0;2061;0;0;0;0;3;0;1228;0;0;0;0;4;0;1668;0;0;0;0;5;0;0;0;0;0;0;0;0;6;0;3246;2;0;0;0;0;0;7;0;1982;0;0;0;0;8;0;785;0;0;0;0;9;0;1037;0;0;0;0
10.11.20;19:20:00;1;370;9061;0;2;0;2061;0;0;0;0;3;0;1228;0;0;0;0;4;0;1668;0;0;0;0;5;0;0;0;0;0;0;0;0;6;0;3246;2;0;0;0;0;0;7;0;1982;0;0;0;0;8;0;785;0;0;0;0;9;0;1037;0;0;0;0
10.11.20;19:15:00;1;320;9029;0;2;0;2061;0;0;0;0;3;0;1228;0;0;0;0;4;0;1668;0;0;0;0;5;0;0;0;0;0;0;0;0;6;0;3246;2;0;0;0;0;0;7;0;1982;0;0;0;0;8;0;785;0;0;0;0;9;0;1037;0;0;0;0
10.11.20;19:10:00;1;312;9002;0;2;0;2061;0;0;0;0;3;0;1228;0;0;0;0;4;0;1668;0;0;0;0;5;0;0;0;0;0;0;0;0;6;0;3246;2;0;0;0;0;0;7;0;1982;0;0;0;0;8;0;785;0;0;0;0;9;0;1037;0;0;0;0
10.11.20;19:05:00;1;354;8976;0;2;0;2061;0;0;0;0;3;0;1228;0;0;0;0;4;0;1668;0;0;0;0;5;0;0;0;0;0;0;0;0;6;0;3246;2;0;0;0;0;0;7;0;1982;0;0;0;0;8;0;785;0;0;0;0;9;0;1037;0;0;0;0
10.11.20;19:00:00;1;428;8947;0;2;0;2061;0;0;0;0;3;0;1228;0;0;0;0;4;0;1668;0;0;0;0;5;0;0;0;0;0;0;0;0;6;0;3246;2;0;0;0;0;0;7;0;1982;0;0;0;0;8;0;785;0;0;0;0;9;0;1037;0;0;0;0
10.11.20;18:55:00;1;853;8911;0;2;0;2061;0;0;0;0;3;0;1228;0;0;0;0;4;0;1668;0;0;0;0;5;0;0;0;0;0;0;0;0;6;0;3246;2;0;0;0;0;0;7;0;1982;0;0;0;0;8;0;785;0;0;0;0;9;0;1037;0;0;0;0
10.11.20;18:50:00;1;724;8841;0;2;0;2061;0;0;0;0;3;0;1228;0;0;0;0;4;0;1668;0;0;0;0;5;0;0;0;0;0;0;0;0;6;0;3246;2;0;0;0;0;0;7;0;1982;0;0;0;0;8;0;785;0;0;0;0;9;0;1037;0;0;0;0
10.11.20;18:45:00;1;700;8782;0;2;0;2061;0;0;0;0;3;0;1228;0;0;0;0;4;0;1668;0;0;0;0;5;0;0;0;0;0;0;0;0;6;0;3246;2;0;0;0;0;0;7;0;1982;0;0;0;0;8;0;785;0;0;0;0;9;0;1037;0;0;0;0
10.11.20;18:40:00;1;1623;8723;0;2;0;2061;0;0;0;0;3;0;1228;0;0;0;0;4;0;1668;0;0;0;0;5;0;0;0;0;0;0;0;0;6;0;3246;2;0;0;0;0;0;7;0;1982;0;0;0;0;8;0;785;0;0;0;0;9;0;1037;0;0;0;0
10.11.20;18:35:00;1;1067;8595;0;2;0;2061;0;0;0;0;3;0;1228;0;0;0;0;4;0;1668;0;0;0;0;5;0;0;0;0;0;0;0;0;6;0;3246;2;0;0;0;0;0;7;0;1982;0;0;0;0;8;0;785;0;0;0;0;9;0;1037;0;0;0;0
10.11.20;18:30:00;1;1260;8496;0;2;0;2061;0;0;0;0;3;0;1228;0;0;0;0;4;0;1668;0;0;0;0;5;0;0;0;0;0;0;0;0;6;0;3246;2;0;0;0;0;0;7;0;1982;0;0;0;0;8;0;785;0;0;0;0;9;0;1037;0;0;0;0
10.11.20;18:25:00;1;1188;8392;0;2;0;2061;0;0;0;0;3;0;1228;0;0;0;0;4;0;1668;0;0;0;0;5;0;0;0;0;0;0;0;0;6;0;3246;2;0;0;0;0;0;7;0;1982;0;0;0;0;8;0;785;0;0;0;0;9;0;1037;0;0;0;0
10.11.20;18:20:00;1;1475;8289;0;2;0;2061;0;0;0;0;3;0;1228;0;0;0;0;4;0;1668;0;0;0;0;5;0;0;0;0;0;0;0;0;6;0;3246;2;0;0;0;0;0;7;0;1982;0;0;0;0;8;0;785;0;0;0;0;9;0;1037;0;0;0;0
10.11.20;18:15:00;1;1489;8171;0;2;0;2061;0;0;0;0;3;0;1228;0;0;0;0;4;0;1668;0;0;0;0;5;0;0;0;0;0;0;0;0;6;0;3246;2;0;0;0;0;0;7;0;1982;0;0;0;0;8;0;785;0;0;0;0;9;0;1037;0;0;0;0
10.11.20;18:10:00;1;1675;8044;0;2;0;2061;0;0;0;0;3;0;1228;0;0;0;0;4;0;1668;0;0;0;0;5;0;0;0;0;0;0;0;0;6;0;3246;2;0;0;0;0;0;7;0;1982;0;0;0;0;8;0;785;0;0;0;0;9;0;1037;0;0;0;0
10.11.20;18:05:00;1;1460;7905;0;2;0;2061;0;0;0;0;3;0;1228;0;0;0;0;4;0;1668;0;0;0;0;5;0;0;0;0;0;0;0;0;6;0;3246;2;0;0;0;0;0;7;0;1982;0;0;0;0;8;0;785;0;0;0;0;9;0;1037;0;0;0;0
10.11.20;18:00:00;1;1811;7742;0;2;0;2061;0;0;0;0;3;0;1228;0;0;0;0;4;0;1668;0;0;0;0;5;0;0;0;0;0;0;0;0;6;0;3246;2;0;0;0;0;0;7;0;1982;0;0;0;0;8;0;785;0;0;0;0;9;0;1037;0;0;0;0
10.11.20;17:55:00;1;3242;7509;0;2;0;2061;0;0;0;0;3;0;1228;0;0;0;0;4;0;1668;0;0;0;0;5;0;0;0;0;0;0;0;0;6;0;3246;2;0;0;0;0;0;7;0;1982;0;0;0;0;8;0;785;0;0;0;0;9;0;1037;0;0;0;0
10.11.20;17:50:00;1;1605;7332;0;2;0;2061;0;0;0;0;3;0;1228;0;0;0;0;4;0;1668;0;0;0;0;5;0;0;0;0;0;0;0;0;6;0;3246;2;0;0;0;0;0;7;0;1982;0;0;0;0;8;0;785;0;0;0;0;9;0;1037;0;0;0;0
10.11.20;17:45:00;1;2294;7163;0;2;0;2061;0;0;0;0;3;0;1228;0;0;0;0;4;0;1668;0;0;0;0;5;0;0;0;0;0;0;0;0;6;0;3246;2;0;0;0;0;0;7;0;1982;0;0;0;0;8;0;785;0;0;0;0;9;0;1037;0;0;0;0
10.11.20;17:40:00;1;2323;6991;0;2;0;2061;0;0;0;0;3;0;1228;0;0;0;0;4;0;1668;0;0;0;0;5;0;0;0;0;0;0;0;0;6;0;3246;2;0;0;0;0;0;7;0;1982;0;0;0;0;8;0;785;0;0;0;0;9;0;1037;0;0;0;0
10.11.20;17:35:00;1;2488;6824;0;2;0;2061;0;0;0;0;3;0;1228;0;0;0;0;4;0;1668;0;0;0;0;5;0;0;0;0;0;0;0;0;6;0;3246;2;0;0;0;0;0;7;0;1982;0;0;0;0;8;0;785;0;0;0;0;9;0;1037;0;0;0;0
10.11.20;17:30:00;1;3464;6616;0;2;0;2061;0;0;0;0;3;0;1228;0;0;0;0;4;0;1668;0;0;0;0;5;0;0;0;0;0;0;0;0;6;0;3246;2;0;0;0;0;0;7;0;1982;0;0;0;0;8;0;785;0;0;0;0;9;0;1037;0;0;0;0
10.11.20;17:25:00;1;333;6306;0;2;0;2061;0;0;0;0;3;0;1228;0;0;0;0;4;0;1668;0;0;0;0;5;0;0;0;0;0;0;0;0;6;0;3246;2;0;0;0;0;0;7;0;1982;0;0;0;0;8;0;785;0;0;0;0;9;0;1037;0;0;0;0
10.11.20;17:20:00;1;290;6279;0;2;0;2061;0;0;0;0;3;0;1228;0;0;0;0;4;0;1668;0;0;0;0;5;0;0;0;0;0;0;0;0;6;0;3246;2;0;0;0;0;0;7;0;1982;0;0;0;0;8;0;785;0;0;0;0;9;0;1037;0;0;0;0
10.11.20;17:15:00;1;372;6255;0;2;0;2061;0;0;0;0;3;0;1228;0;0;0;0;4;0;1668;0;0;0;0;5;0;0;0;0;0;0;0;0;6;0;3246;2;0;0;0;0;0;7;0;1982;0;0;0;0;8;0;785;0;0;0;0;9;0;1037;0;0;0;0
10.11.20;17:10:00;1;394;6224;0;2;0;2061;0;0;0;0;3;0;1228;0;0;0;0;4;0;1668;0;0;0;0;5;0;0;0;0;0;0;0;0;6;0;3246;2;0;0;0;0;0;7;0;1982;0;0;0;0;8;0;785;0;0;0;0;9;0;1037;0;0;0;0
10.11.20;17:05:00;1;407;6190;0;2;0;2061;0;0;0;0;3;0;1228;0;0;0;0;4;0;1668;0;0;0;0;5;0;0;0;0;0;0;0;0;6;0;3246;2;0;0;0;0;0;7;0;1982;0;0;0;0;8;0;785;0;0;0;0;9;0;1037;0;0;0;0
10.11.20;17:00:00;1;388;6156;0;2;0;2061;0;0;0;0;3;0;1228;0;0;0;0;4;0;1668;0;0;0;0;5;0;0;0;0;0;0;0;0;6;0;3246;2;0;0;0;0;0;7;0;1982;0;0;0;0;8;0;785;0;0;0;0;9;0;1037;0;0;0;0
10.11.20;16:55:00;1;369;6123;0;2;0;2061;0;0;0;0;3;0;1228;0;0;35;2;4;0;1668;0;0;0;0;5;0;0;0;0;0;0;0;0;6;0;3246;2;0;0;0;0;0;7;0;1982;0;0;0;0;8;0;785;0;0;0;0;9;0;1037;0;0;0;0
10.11.20;16:50:00;1;335;6093;0;2;0;2061;0;0;128;5;3;0;1228;6;0;284;14;4;0;1668;0;0;0;0;5;0;0;0;0;0;0;0;0;6;0;3246;2;0;0;0;0;0;7;0;1982;0;0;0;0;8;0;785;0;0;0;0;9;0;1037;0;0;0;0
10.11.20;16:45:00;1;335;6065;0;2;0;2061;6;0;277;11;3;0;1228;6;0;304;14;4;0;1668;0;0;47;8;5;0;0;0;0;0;0;0;0;6;0;3246;0;0;0;0;0;0;7;0;1982;0;0;0;0;8;0;785;0;0;0;0;9;0;1037;0;0;0;0
10.11.20;16:40:00;1;339;6037;0;2;0;2061;6;0;307;11;3;0;1228;6;0;361;14;4;0;1668;1;0;93;12;5;0;0;0;0;0;0;0;0;6;0;3246;1;0;0;0;0;1;7;0;1982;0;0;0;0;8;0;785;0;0;0;0;9;0;1037;0;0;0;0
10.11.20;16:35:00;1;482;6010;0;2;0;2061;6;0;338;11;3;0;1228;6;0;402;15;4;0;1668;1;0;126;12;5;0;0;0;0;0;0;0;0;6;0;3246;23;3;4;179;396;23;7;0;1982;0;0;179;10;8;0;785;0;0;179;10;9;0;1037;6;0;281;11
10.11.20;16:30:00;1;856;5973;0;2;0;2061;6;0;370;12;3;0;1228;6;1;449;15;4;0;1668;1;0;175;13;5;0;0;0;0;0;0;0;0;6;0;3246;23;5;4;181;534;24;7;0;1982;6;0;336;16;8;0;785;6;0;338;15;9;0;1037;6;0;361;12
10.11.20;16:25:00;1;1218;5903;0;2;0;2061;6;0;385;12;3;0;1228;6;1;468;15;4;0;1668;1;0;203;13;5;0;0;0;0;0;0;0;0;6;0;3246;23;4;5;182;557;24;7;0;1982;6;0;388;16;8;0;785;6;0;381;15;9;0;1037;6;0;414;12
10.11.20;16:20:00;1;545;5804;0;2;0;2061;6;0;400;12;3;3;1228;4;6;460;15;4;0;1668;1;0;219;13;5;0;0;0;0;0;0;0;0;6;7;3246;23;1;12;506;555;25;7;0;1982;6;0;427;16;8;0;785;6;0;414;16;9;0;1037;6;1;466;12
10.11.20;16:15:00;1;447;5747;0;2;0;2061;6;0;411;12;3;3;1227;3;8;478;15;4;0;1668;3;0;199;14;5;0;0;0;0;0;0;0;0;6;58;3245;4;15;44;475;453;26;7;0;1982;4;1;450;16;8;0;785;6;0;451;16;9;1;1037;6;1;487;12
10.11.20;16:10:00;1;526;5712;0;2;0;2061;6;0;421;12;3;3;1227;6;6;499;15;4;7;1668;3;7;199;14;5;0;0;0;0;0;0;0;0;6;76;3240;4;25;53;475;453;26;7;2;1982;3;11;421;17;8;0;785;6;1;450;16;9;0;1037;6;2;511;12
10.11.20;16:05:00;1;378;5665;0;2;10;2061;3;19;400;12;3;3;1227;6;13;493;15;4;3;1667;3;3;199;14;5;0;0;0;0;0;0;0;0;6;84;3234;4;20;40;475;453;26;7;2;1982;6;4;468;17;8;1;785;6;3;449;16;9;0;1037;6;3;518;12
10.11.20;16:00:00;1;360;5633;0;2;7;2060;6;11;416;13;3;5;1227;6;15;497;15;4;18;1667;3;19;199;14;5;0;0;0;0;0;0;0;0;6;102;3226;4;42;78;475;453;26;7;6;1982;6;14;452;17;8;0;785;6;0;481;16;9;0;1037;6;0;549;12
10.11.20;15:55:00;1;299;5603;0;2;5;2059;6;9;414;13;3;5;1226;6;13;496;16;4;2;1666;3;2;199;14;5;0;0;0;0;0;0;0;0;6;90;3218;4;37;73;475;453;26;7;3;1982;6;7;473;17;8;2;785;3;3;453;16;9;1;1037;3;4;523;12
10.11.20;15:50:00;1;350;5578;0;2;6;2059;6;11;415;13;3;0;1226;6;0;546;16;4;16;1665;3;17;199;14;5;0;0;0;0;0;0;0;0;6;92;3210;4;28;56;475;453;26;7;2;1981;6;7;477;17;8;2;785;6;1;477;16;9;0;1037;6;4;527;12
10.11.20;15:45:00;1;338;5550;0;2;34;2058;6;50;381;13;3;8;1226;3;17;500;16;4;14;1664;3;14;199;14;5;0;0;0;0;0;0;0;0;6;106;3203;4;41;79;475;453;26;7;6;1981;6;7;465;17;8;3;785;6;4;456;16;9;1;1036;6;4;529;12
10.11.20;15:40:00;1;297;5521;0;2;82;2055;4;108;365;14;3;7;1225;6;11;543;16;4;49;1663;3;51;198;14;5;0;0;0;0;0;0;0;0;6;152;3193;4;51;72;475;453;26;7;55;1981;4;82;370;18;8;0;784;6;3;497;16;9;4;1036;6;7;548;13
10.11.20;15:35:00;1;295;5496;0;2;96;2048;4;123;369;14;3;27;1224;6;43;500;16;4;53;1659;3;55;197;14;5;0;0;0;0;0;0;0;0;6;165;3181;4;67;91;475;453;26;7;71;1976;4;103;409;18;8;3;784;6;7;480;17;9;6;1036;6;8;551;13
10.11.20;15:30:00;1;297;5471;0;2;128;2040;4;156;370;14;3;70;1222;4;103;436;17;4;82;1654;3;85;199;14;5;0;0;0;0;0;0;0;0;6;209;3166;4;83;107;475;453;26;7;101;1970;4;136;421;18;8;4;784;6;8;510;17;9;7;1036;6;10;563;13
10.11.20;15:25:00;1;305;5446;0;2;136;2030;4;165;380;14;3;77;1216;4;113;473;17;4;95;1647;3;98;212;14;5;0;0;0;0;0;0;0;0;6;226;3149;4;104;128;476;453;26;7;104;1962;4;140;428;18;8;6;784;3;10;507;17;9;10;1035;4;13;560;13
10.11.20;15:20:00;1;361;5420;0;2;141;2018;4;169;379;14;3;80;1209;4;114;482;17;4;99;1639;3;103;221;14;5;0;0;0;0;0;0;0;0;6;230;3130;4;119;160;476;453;26;7;115;1953;4;142;411;18;8;13;783;6;19;481;17;9;18;1034;6;26;548;13
10.11.20;15:15:00;1;348;5391;0;2;176;2006;4;205;376;14;3;101;1203;4;138;502;17;4;133;1631;5;138;222;14;5;0;0;0;0;0;0;0;0;6;268;3111;4;133;159;477;453;26;7;160;1943;4;192;425;18;8;51;782;4;91;453;17;9;82;1033;4;108;497;14
10.11.20;15:10:00;1;339;5361;0;2;197;1992;4;226;378;14;3;114;1194;4;151;509;17;4;151;1620;5;157;227;14;5;0;0;0;0;0;0;0;0;6;289;3088;4;129;148;474;453;26;7;174;1930;4;208;434;18;8;59;778;4;97;458;17;9;92;1026;4;119;496;14
10.11.20;15:05:00;1;286;5334;0;2;219;1975;4;249;379;14;3;134;1185;4;171;495;17;4;176;1607;5;183;227;14;5;0;0;0;0;0;0;0;0;6;313;3064;4;141;159;475;453;26;7;204;1915;4;234;453;18;8;75;773;4;112;458;17;9;106;1018;4;133;505;14
10.11.20;15:00:00;1;297;5310;0;2;242;1957;4;273;386;14;3;146;1174;4;182;510;17;4;193;1593;5;201;227;14;5;0;0;0;0;0;0;0;0;6;345;3038;4;165;182;475;453;26;7;243;1898;4;276;454;18;8;92;767;4;133;462;17;9;126;1009;4;155;520;14
10.11.20;14:55:00;1;289;5285;0;2;253;1937;4;284;389;14;3;152;1161;4;190;500;17;4;202;1577;5;210;229;14;5;0;0;0;0;0;0;0;0;6;360;3009;4;175;200;475;453;26;7;253;1878;4;292;458;18;8;100;759;4;139;478;17;9;138;999;4;166;509;14
10.11.20;14:50:00;1;396;5261;0;2;259;1916;4;287;379;14;3;158;1149;4;195;502;17;4;213;1560;5;222;231;14;5;0;0;0;0;0;0;0;0;6;374;2978;4;178;207;475;453;26;7;251;1857;4;290;450;18;8;96;751;4;136;472;17;9;136;987;4;161;514;14
10.11.20;14:45:00;1;359;5228;0;2;233;1894;4;263;387;14;3;138;1135;4;177;514;17;4;185;1542;5;193;229;14;5;0;0;0;0;0;0;0;0;6;343;2947;4;174;190;475;453;25;7;243;1836;4;270;453;18;8;87;743;4;116;487;17;9;124;976;4;154;509;14
10.11.20;14:40:00;1;341;5199;0;2;216;1874;4;244;380;14;3;126;1124;4;162;513;17;4;167;1526;5;174;232;14;5;0;0;0;0;0;0;0;0;6;311;2919;4;167;187;475;453;25;7;213;1816;4;254;462;18;8;81;735;4;115;474;17;9;118;965;4;144;505;14
10.11.20;14:35:00;1;355;5170;0;2;209;1856;4;239;381;14;3;120;1113;4;161;514;17;4;163;1512;5;169;229;14;5;0;0;0;0;0;0;0;0;6;308;2893;4;139;157;475;453;25;7;219;1798;4;257;470;18;8;80;728;4;117;480;17;9;122;955;4;150;507;14
10.11.20;14:30:00;1;372;5141;0;2;172;1839;4;200;377;14;3;98;1103;4;136;499;17;4;129;1499;5;134;224;14;5;0;0;0;0;0;0;0;0;6;261;2868;4;115;144;475;457;25;7;169;1780;4;191;441;18;8;56;722;4;93;451;17;9;87;945;4;112;488;14
10.11.20;14:25:00;1;349;5110;0;2;216;1825;4;246;380;14;3;125;1095;4;163;511;17;4;167;1488;5;174;229;14;5;0;0;0;0;0;0;0;0;6;346;2846;4;158;194;515;550;25;7;182;1765;4;217;438;18;8;70;717;4;104;444;17;9;97;938;4;122;497;14
10.11.20;14:20:00;1;381;5081;0;2;270;1807;4;303;388;15;3;164;1085;4;201;509;17;4;218;1474;5;227;227;14;5;0;0;0;0;0;0;0;0;6;439;2816;4;210;253;575;551;25;7;233;1750;4;267;452;18;8;95;711;4;131;453;17;9;125;930;4;152;514;14
10.11.20;14:15:00;1;283;5049;0;2;321;1784;4;356;389;15;3;195;1071;4;235;510;17;4;265;1456;5;276;233;14;5;0;0;0;0;0;0;0;0;6;522;2779;4;239;265;578;554;25;7;288;1731;4;317;461;18;8;121;703;4;152;451;17;9;151;919;4;179;519;14
10.11.20;14:10:00;1;283;5026;0;2;320;1757;4;353;391;15;3;197;1055;4;236;493;17;4;267;1434;5;278;232;14;5;0;0;0;0;0;0;0;0;6;525;2735;4;253;279;577;558;25;7;331;1706;4;360;476;18;8;140;693;4;178;457;17;9;176;907;4;203;510;14
10.11.20;14:05:00;1;283;5002;0;2;334;1731;4;369;396;15;3;204;1038;4;243;477;17;4;273;1411;5;285;231;14;5;0;0;0;0;0;0;0;0;6;525;2692;4;258;283;574;559;25;7;360;1679;4;407;483;18;8;166;681;4;200;439;17;9;201;892;4;232;518;14
10.11.20;14:00:00;1;284;4978;0;2;375;1703;4;413;397;15;3;233;1021;4;275;498;17;4;314;1388;5;326;235;14;5;0;0;0;0;0;0;0;0;6;590;2647;4;282;311;577;562;25;7;411;1649;4;439;476;18;8;178;667;4;216;467;17;9;216;875;4;248;512;14
10.11.20;13:55:00;1;302;4955;0;2;376;1671;4;411;401;15;3;232;1002;4;276;497;17;4;315;1362;5;329;235;14;5;0;0;0;0;0;0;0;0;6;599;2598;4;300;330;567;558;25;7;386;1614;4;419;474;18;8;172;653;4;203;444;17;9;207;857;4;240;511;14
10.11.20;13:50:00;1;297;4930;0;2;365;1640;4;402;402;15;3;229;982;4;267;506;17;4;313;1336;5;326;233;14;5;0;0;0;0;0;0;0;0;6;593;2548;4;265;305;568;566;25;7;409;1582;4;446;483;18;8;184;638;4;219;467;17;9;222;840;4;253;506;14
10.11.20;13:45:00;1;298;4904;0;2;358;1610;4;395;400;15;3;223;963;4;263;489;17;4;299;1310;5;312;232;14;5;0;0;0;0;0;0;0;0;6;571;2498;4;277;317;573;564;25;7;378;1548;4;422;464;18;8;163;623;4;203;477;17;9;207;821;4;237;507;14
10.11.20;13:40:00;1;310;4878;0;2;389;1579;4;424;396;15;3;243;945;4;283;507;17;4;329;1285;5;343;237;14;5;0;0;0;0;0;0;0;0;6;621;2450;4;292;321;573;567;25;7;409;1516;4;435;467;18;8;176;609;4;214;457;17;9;215;804;4;245;510;14
10.11.20;13:35:00;1;311;4852;0;2;386;1547;4;423;401;15;3;239;924;4;282;503;17;4;328;1257;5;341;236;14;5;0;0;0;0;0;0;0;0;6;619;2398;4;289;317;573;567;25;7;402;1482;4;438;482;18;8;181;594;4;214;477;17;9;219;786;4;249;509;14
10.11.20;13:30:00;1;403;4826;0;2;390;1515;4;426;401;15;3;244;904;4;285;515;17;4;332;1230;5;345;237;14;5;0;0;0;0;0;0;0;0;6;624;2346;4;306;347;574;568;25;7;360;1449;4;405;482;18;8;162;579;4;200;466;17;9;200;768;4;229;519;14
10.11.20;13:25:00;1;411;4796;0;2;325;1482;4;358;389;15;3;201;884;4;239;504;17;4;272;1203;5;283;234;14;5;0;0;0;0;0;0;0;0;6;517;2295;4;257;286;572;557;25;7;331;1419;4;368;480;18;8;139;566;4;176;487;17;9;184;751;4;213;525;14